"Pseudo-MPEC" for jkN2006

Created 2021 Nov 27 6:07:30 UT using Find_Orb

Click here for an explanation of pseudo-MPECs

 
 Astrometry: 
     jkN2006 LC2021 11 06.58846811 34 02.40 +13 37 27.6    ~B767 22.2 rVNEOCP568
     jkN2006 LC2021 11 06.59984511 34 03.99 +13 37 27.3    ~B767 22.4 rVNEOCP568
     jkN2006 LC2021 11 06.61109911 34 05.54 +13 37 27.0    ~B767 21.5 rVNEOCP568
     jkN2006 LC2021 11 06.62235311 34 07.12 +13 37 26.7    ~B767 22.5 rVNEOCP568
     jkN2006 LC2021 11 06.63357411 34 08.69 +13 37 26.3    ~B767 22.5 rVNEOCP568
     jkN2006 LC2021 11 06.64481611 34 10.27 +13 37 26.0    ~B767 22.7 rVNEOCP568

Station data:
(568) Mauna Kea  (N19.826116 W155.472200)  US/Hawaii.

Orbital elements:  jkN2006
   Perihelion 2021 Jul 5.560133 +/- 78.8139 TT = 13:26:35 (JD 2459401.060133)
Epoch 2021 Nov  7.0 TT = JDT 2459525.5   Earth MOID: 0.5666   Ma: 0.0267
M  38.42706300 +/- 90.212988        (J2000 ecliptic)          AutoNEOCP
n   0.30880025 +/- 0.690232         Peri.  315.19247 +/- 96.667149
a   2.16779201 +/- 3.23025          Node   118.68458 +/- 73.006016
e   0.3179429 +/- 0.210939          Incl.   30.00176 +/- 63.387932
P   3.19                   H 18.5   G  0.15   U 12.5  SR
q 1.47855778 +/- 0.503365    Q 2.85702624 +/- 11.9932
From 6 observations 2021 Nov. 6 (81.1 min); mean residual 0".10
Residuals in arcseconds: 
211106 568  .11+  .02-    211106 568  .23-  .02+    211106 568  .03-  .03-    
211106 568  .10+  .00     211106 568  .10-  .04+    211106 568  .16+  .01-    

Ephemerides (geocentric):
Date (UTC) HH   RA              Dec         delta   r     elong  mag " sig PA
---- -- -- --  -------------   -----------  ------ ------ -----  --- ---- ---
2021 11 27 06  12 20 32.721   +13 48 32.51  1.9799 1.8288  66.6 22.6  51d  11
2021 11 27 07  12 20 38.110   +13 48 37.15  1.9796 1.8290  66.7 22.6  51d  11
2021 11 27 08  12 20 43.498   +13 48 41.80  1.9794 1.8291  66.7 22.6  51d  11
2021 11 27 09  12 20 48.885   +13 48 46.46  1.9791 1.8293  66.7 22.6  51d  11
2021 11 27 10  12 20 54.270   +13 48 51.14  1.9789 1.8294  66.7 22.6  51d  11
2021 11 27 11  12 20 59.655   +13 48 55.84  1.9786 1.8296  66.8 22.6  51d  11
2021 11 27 12  12 21 05.039   +13 49 00.55  1.9784 1.8298  66.8 22.6  51d  11
2021 11 27 13  12 21 10.422   +13 49 05.28  1.9781 1.8299  66.8 22.6  51d  11
2021 11 27 14  12 21 15.803   +13 49 10.02  1.9778 1.8301  66.8 22.6  51d  11
2021 11 27 15  12 21 21.184   +13 49 14.78  1.9776 1.8302  66.8 22.6  51d  11
2021 11 27 16  12 21 26.564   +13 49 19.55  1.9773 1.8304  66.9 22.6  51d  11
2021 11 27 17  12 21 31.942   +13 49 24.34  1.9771 1.8306  66.9 22.6  52d  11
2021 11 27 18  12 21 37.320   +13 49 29.15  1.9768 1.8307  66.9 22.6  52d  11
2021 11 27 19  12 21 42.696   +13 49 33.97  1.9766 1.8309  66.9 22.6  52d  11
2021 11 27 20  12 21 48.072   +13 49 38.81  1.9763 1.8310  67.0 22.6  52d  11
2021 11 27 21  12 21 53.446   +13 49 43.66  1.9760 1.8312  67.0 22.6  52d  11
2021 11 27 22  12 21 58.819   +13 49 48.53  1.9758 1.8314  67.0 22.6  52d  11
2021 11 27 23  12 22 04.191   +13 49 53.41  1.9755 1.8315  67.0 22.6  52d  11
2021 11 28 00  12 22 09.563   +13 49 58.31  1.9753 1.8317  67.0 22.6  52d  11
2021 11 28 01  12 22 14.933   +13 50 03.23  1.9750 1.8318  67.1 22.6  52d  11
2021 11 28 02  12 22 20.302   +13 50 08.16  1.9748 1.8320  67.1 22.6  52d  11
2021 11 28 03  12 22 25.670   +13 50 13.11  1.9745 1.8322  67.1 22.6  52d  11
2021 11 28 04  12 22 31.037   +13 50 18.07  1.9742 1.8323  67.1 22.6  52d  11
2021 11 28 05  12 22 36.403   +13 50 23.05  1.9740 1.8325  67.2 22.6  52d  11
2021 11 28 06  12 22 41.767   +13 50 28.05  1.9737 1.8326  67.2 22.6  52d  11
2021 11 28 07  12 22 47.131   +13 50 33.06  1.9735 1.8328  67.2 22.6  52d  11
2021 11 28 08  12 22 52.494   +13 50 38.09  1.9732 1.8330  67.2 22.6  52d  11
2021 11 28 09  12 22 57.856   +13 50 43.13  1.9729 1.8331  67.2 22.6  52d  11
2021 11 28 10  12 23 03.216   +13 50 48.19  1.9727 1.8333  67.3 22.6  52d  11
2021 11 28 11  12 23 08.576   +13 50 53.26  1.9724 1.8334  67.3 22.6  52d  11
2021 11 28 12  12 23 13.934   +13 50 58.35  1.9722 1.8336  67.3 22.6  52d  11
2021 11 28 13  12 23 19.292   +13 51 03.46  1.9719 1.8338  67.3 22.6  52d  11
2021 11 28 14  12 23 24.648   +13 51 08.58  1.9716 1.8339  67.4 22.6  52d  11
2021 11 28 15  12 23 30.003   +13 51 13.72  1.9714 1.8341  67.4 22.6  52d  11
2021 11 28 16  12 23 35.357   +13 51 18.88  1.9711 1.8342  67.4 22.6  52d  11
2021 11 28 17  12 23 40.711   +13 51 24.05  1.9709 1.8344  67.4 22.6  52d  11
2021 11 28 18  12 23 46.063   +13 51 29.24  1.9706 1.8346  67.5 22.6  52d  11
2021 11 28 19  12 23 51.414   +13 51 34.44  1.9704 1.8347  67.5 22.6  52d  11
2021 11 28 20  12 23 56.764   +13 51 39.66  1.9701 1.8349  67.5 22.6  52d  11
2021 11 28 21  12 24 02.112   +13 51 44.89  1.9698 1.8350  67.5 22.6  52d  11
2021 11 28 22  12 24 07.460   +13 51 50.14  1.9696 1.8352  67.5 22.6  52d  11
2021 11 28 23  12 24 12.807   +13 51 55.41  1.9693 1.8354  67.6 22.6  52d  11
2021 11 29 00  12 24 18.153   +13 52 00.70  1.9691 1.8355  67.6 22.6  52d  11
2021 11 29 01  12 24 23.497   +13 52 06.00  1.9688 1.8357  67.6 22.6  52d  11
2021 11 29 02  12 24 28.841   +13 52 11.31  1.9685 1.8358  67.6 22.6  52d  11
2021 11 29 03  12 24 34.183   +13 52 16.64  1.9683 1.8360  67.7 22.6  52d  11
2021 11 29 04  12 24 39.524   +13 52 21.99  1.9680 1.8362  67.7 22.6  52d  11
2021 11 29 05  12 24 44.865   +13 52 27.36  1.9678 1.8363  67.7 22.6  52d  11